User: anonymous   Login
Location: Zlin
(49.2330°N, 17.6670°E)
Time: 02:30:35
(UTC+01:00)
Language:

ISS - Orbit

View from above orbital plane
View from above orbital plane
View from above satellite
View from above satellite

Ground track
Ground track

The orbit data is extracted from the following two-line orbital elements,

1 25544U 98067A   14352.86399956  .00029740  00000-0  48283-3 0  5884
2 25544 051.6484 263.7528 0007637 144.6912 303.7798 15.52444472919984
Epoch (UTC): 18 December 2014 20:44:09
Eccentricity: 0.0007637
inclination: 51.6484°
perigee height: 404 km
apogee height: 415 km
right ascension of ascending node: 263.7528°
argument of perigee: 144.6912°
revolutions per day: 15.52444472
mean anomaly at epoch: 303.7798°
orbit number at epoch: 91998

The dashed part of the orbit path shows where the satellite is in the earth's shadow,  

DLR